Weather in Ypres

Belgium     50°51′02″N   2°53′08″E
temp.,
°C
wind,
m/s
gust,
m/s
humid.,
%
clouds,
%
prec.,
mm/h
press.,
hPa
HPBL,
m
15 april, thu
thu1523:00+2nne410845 0.0 1032293
02:00+1ne38875 0.0 1032197
05:00+1nne36905 0.0 1031139
08:00+1nne24875 0.0 1032121
11:00+7nne346380 0.2 10311168
14:00+10nne444399 0.6 10302131
17:00+10nne564376 0.1 10291863
20:00+7nne696584 0.1 1029659
16 april, fri
fri1623:00+3nne398662 0.0 1030189
02:00+3ne378335 0.0 1030146
05:00+1ne34861 0.0 103080
08:00+2ne37795 0.0 1030177
11:00+8ne57555 0.0 10301010
14:00+11ne674484 0.0 10291931
17:00+10n775381 0.0 10281410
20:00+7n597112 0.0 1028506
17 april, sat
sat1723:00+4n411845 0.0 1028291
02:00+3nne49875 0.0 1028205
05:00+2nne38865 0.0 1028172
08:00+3nne38805 0.0 1028241
11:00+9ne56560 0.0 1028909
14:00+12nne45465 0.0 10261639
17:00+11n665237 0.0 10251416
20:00+8n57715 0.0 1025400
18 april, sun
sun1823:00+4n38885 0.0 1026189
02:00+3n35885 0.0 102694
05:00+3n239116 0.0 102555
08:00+4n248975 0.0 1026102
11:00+9n3364100 0.0 1026629
14:00+13nnw3252100 0.0 10251215
17:00+12nnw4461100 0.0 1024862
20:00+9n3569100 0.0 1025275
19 april, mon
mon1923:00+6n237799 0.0 102556
02:00+5ne22785 0.0 102529
05:00+4n11805 0.0 102414
08:00+5ene12805 0.0 102351
11:00+11ene226410 0.0 1023563
14:00+15ese2249100 0.1 10211787
17:00+14ese2251100 0.1 10191341
20:00+12ene22625 0.2 101970